Home   Weather   Bonn   Past weeks
Flag for Germany

Past Weather in Bonn, North Rhine-Westphalia, Germany — Yesterday and Last 2 Weeks

Now
43 °F

Passing clouds.


Feels Like: 39 °F
Forecast: 53 / 39 °F
Wind: 7 mph from Northeast

Location: Aachen-Orsbach

Current Time: Feb 19, 2019 at 7:55:30 am

Latest Report: Feb 19, 2019 at 6:00 am


Visibility: 13 mi

Pressure: 30.07 "Hg

Humidity: 91%

Dew Point: 41 °F

Location of BonnLocation

Past Weather in Bonn — Graph

°F

Bonn Temperature Yesterday

Maximum temperature yesterday: 60 °F (at 2:00 pm)
Minimum temperature yesterday: 47 °F (at 8:00 am)
Average temperature yesterday: 52 °F

High & Low Weather Summary for the Past Weeks

 TemperatureHumidityPressure
High63 °F (Feb 17, 2:00 pm)96% (Feb 10, 11:00 pm)30.64 "Hg (Feb 10, 11:00 pm)
Low31 °F (Feb 12, 6:00 am)24% (Feb 14, 2:00 pm)29.26 "Hg (Feb 10, 11:00 am)
Average44 °F69%30.17 "Hg
* Reported Feb 4 6:00 am — Feb 19 6:00 am, Bonn. Weather by CustomWeather, © 2019

Note: Actual official high and low records may vary slightly from our data, if they occured in-between our weather recording intervals... More about our weather records

Advertising

Bonn Weather History for the Previous 24 Hours

Scroll right to see more
 ConditionsComfort  
Time TempWeatherWind HumidityBarometerVisibility
6:00 am
Tue, Feb 19
43 °FPassing clouds.6 mph91%30.07 "Hg6 mi
5:00 am43 °FLight rain. Low clouds.6 mph93%30.06 "Hg5 mi
4:00 amN/APassing clouds.8 mphN/AN/A2 mi
3:00 am46 °FOvercast.7 mph76%30.04 "Hg16 mi
2:00 am46 °FOvercast.7 mph66%30.03 "Hg31 mi
12:00 am47 °FPassing clouds.7 mph60%30.02 "Hg2 mi
11:00 pm
Mon, Feb 18
48 °FOvercast.9 mph60%30.02 "Hg31 mi
10:00 pmN/APassing clouds.10 mphN/AN/A7 mi
9:00 pm48 °FOvercast.7 mph60%30.02 "Hg34 mi
8:00 pm49 °FOvercast.6 mph58%30.01 "Hg31 mi
6:00 pm52 °FOvercast.7 mph51%30.00 "Hg31 mi
5:00 pm55 °FScattered clouds.7 mph48%30.00 "Hg31 mi
3:00 pm60 °FSunny.5 mph37%29.99 "Hg34 mi
2:00 pm60 °FSunny.5 mph37%30.01 "Hg34 mi
12:00 pm58 °FSunny.3 mph41%30.06 "Hg19 mi
11:00 am55 °FSunny.6 mph42%30.08 "Hg37 mi
9:00 am50 °FSunny.6 mph46%30.10 "Hg47 mi
8:00 am47 °FSunny.6 mph51%30.10 "Hg34 mi
Weather by CustomWeather, © 2019

See weather overview